Regional Weather Roundup
Issued by NWS

Home | Current Version | Previous Version | Text Only | Print | Product List | Glossary Off
Versions: 1 2 3 4 5 6 7 8 9 10 11 12 13 14 15 16 17 18 19 20 21 22 23 24 25 26 27 28 29 30 31 32 33 34 35 36 37 38 39 40 41 42 43 44 45 46 47 48 49 50

000
ASUS43 KMPX 211410
RWRMN
WEATHER ROUNDUP FOR MINNESOTA
NATIONAL WEATHER SERVICE TWIN CITIES/CHANHASSEN MN
800 AM CST SUN DEC 21 2014


NOTE: "FAIR" INDICATES FEW OR NO CLOUDS BELOW 12,000 FEET WITH NO
SIGNIFICANT WEATHER AND/OR OBSTRUCTIONS TO VISIBILITY. N/A MEANS
CURRENT SKY AND/OR WEATHER CONDITIONS ARE NOT AVAILABLE.

MNZ060>063-068>070-211500-
   Twin Cities Metro

CITY           SKY/WX    TMP DP  RH WIND       PRES   REMARKS
TWIN CITIES    CLOUDY    33  32  96 SE13      29.89F FOG     WCI  24
ST PAUL        CLOUDY    33  32  96 SE15      29.91F FOG     WCI  23
CRYSTAL        CLOUDY    34  32  92 SE12      29.86F FOG     WCI  25
BLAINE         CLOUDY    34  34 100 SE10G17   29.88F FOG     WCI  26
LAKEVILLE      CLOUDY    32  32 100 SE9       29.89F FOG     WCI  24
EDEN PRAIRIE   LGT RAIN  34  32  92 SE12      29.87F FOG     WCI  25
SOUTH ST PAUL  CLOUDY    33  32  96 SE9       29.90F FOG     WCI  26
LAKE ELMO      LGT SNOW  32  32 100 SE15G22   29.91F WCI  22
$$
MNZ001>005-007-008-013>017-022>024-027-028-211500-
   Northwest Minnesota

CITY           SKY/WX    TMP DP  RH WIND       PRES   REMARKS
BEMIDJI        CLOUDY    29  28  96 S15       29.76F FOG     WCI  18
HALLOCK        LGT SNOW  30  30 100 CALM      29.68F
ROSEAU         CLOUDY    30  27  86 S12       29.72S WCI  21
WARROAD        LGT SNOW  30  27  86 SE8       29.73F WCI  23
THIEF RVR FALL CLOUDY    30  28  93 S15       29.72F WCI  19
CROOKSTON      CLOUDY    30  30 100 S17G24    29.73F FOG     WCI  18
FOSSTON        CLOUDY    28  27  93 S14       29.74F FOG     WCI  17
DETROIT LAKES  CLOUDY    30  30 100 S16       29.76F FOG     WCI  19
MOORHEAD       CLOUDY    30  30 100 S16       29.77S FOG     WCI  19
PARK RAPIDS    CLOUDY    30  29  96 S12       29.78F FOG     WCI  20
MAHNOMEN       CLOUDY    29  28  96 S13       29.74F FOG     WCI  19
$$
MNZ006-009>011-018-025>026-211500-
   North Central Minnesota

CITY           SKY/WX    TMP DP  RH WIND       PRES   REMARKS
BAUDETTE       CLOUDY    29  27  92 S8        29.75F FOG     WCI  21
FLAG ISLAND    LGT SNOW  28  27  93 S18       29.73F WCI  16
INTL FALLS     LGT SNOW  29  26  89 S7        29.80F FOG     WCI  22
WASKISH        CLOUDY    28  28 100 SE6       29.78F FOG     WCI  22
BIG FORK       LGT SNOW  28  27  93 S9        29.81F WCI  20
LONGVILLE      CLOUDY    28  28 100 S7        29.81S FOG     WCI  21
GRAND RAPIDS   CLOUDY    28  27  93 S14       29.82S WCI  17
CRANE LAKE     MIX PCPN  28  27  93 S6        29.86F WCI  22
ORR            CLOUDY    28  25  86 SE10      29.81S WCI  19
COOK           CLOUDY    28  27  93 SE12G20   29.84F WCI  18
WALKER         CLOUDY    28  28  97 S9        29.78F FOG     WCI  20
$$
MNZ012-019>021-037-211500-
   Northeast Minnesota

CITY           SKY/WX    TMP DP  RH WIND       PRES   REMARKS
DULUTH         FRZ DRZL  30  27  88 S14       29.87F FOG     WCI  19
ELY            CLOUDY    28  27  93 S10       29.87F WCI  19
HIBBING        CLOUDY    30  26  85 S10       29.84F WCI  21
EVELETH        CLOUDY    30  30 100 S8G16     29.87F FOG     WCI  23
DULUTH HARBOR  CLOUDY    34  28  80 CALM      29.94F
TWO HARBORS    CLOUDY    34  28  80 S8        29.90F WCI  27
SILVER BAY     CLOUDY    32  28  86 SE7       29.91F FOG     WCI  26
GRAND MARAIS     N/A     34  28  79 S16       29.98F WCI  24
G MARAIS ARPRT CLOUDY    27  23  86 S10G17    29.92F FOG     WCI  17
$$
MNZ029>031-032-039>041-046>048-054>057-064-211500-
   West Central Minnesota

CITY           SKY/WX    TMP DP  RH WIND       PRES   REMARKS
FERGUS FALLS   CLOUDY    30  28  93 S15       29.80F FOG     WCI  19
WHEATON        CLOUDY    28  27  93 SE10      29.79F FOG     WCI  19
MORRIS         CLOUDY    30  30 100 S10       29.79F FOG     WCI  21
ALEXANDRIA     CLOUDY    30  29  96 S15       29.80F FOG     WCI  19
ELBOW LAKE     CLOUDY    30  29  99 S20       29.77F FOG     WCI  17
WADENA         CLOUDY    28  28 100 S10       29.78F FOG     WCI  19
GLENWOOD       CLOUDY    30  28  93 S10       29.81S FOG     WCI  21
APPLETON       CLOUDY    34  30  86 S5        29.80F FOG     WCI  30
BENSON         CLOUDY    32  28  86 SW7       29.81F FOG     WCI  26
ORTONVILLE     CLOUDY    30  28  93 S6        29.78F FOG     WCI  24
MADISON        MOCLDY    36  34  93 S7        29.79F FOG
WILLMAR        CLOUDY    32  30  93 S3        29.83F FOG
$$
MNZ033>034-036-042>043-049>051-058-059-211500-
   Central Minnesota

CITY           SKY/WX    TMP DP  RH WIND       PRES   REMARKS
ST CLOUD       CLOUDY    34  31  88 SE10      29.85F FOG     WCI  26
SAUK CENTRE    CLOUDY    30  30  98 S10       29.82F FOG     WCI  21
PAYNESVILLE    CLOUDY    29  29 100 SE10      29.84S FOG     WCI  20
AITKIN         CLOUDY    32  27  80 S12       29.83F HAZE    WCI  23
PINE RIVER     CLOUDY    28  28 100 S9        29.85S FOG     WCI  20
BRAINERD       CLOUDY    30  29  96 S15       29.83F FOG     WCI  19
STAPLES        CLOUDY    28  28 100 S10       29.80F FOG     WCI  19
LONG PRAIRIE   CLOUDY    30  30 100 S13       29.83S FOG     WCI  20
LITTLE FALLS   CLOUDY    32  30  93 S7        29.84F FOG     WCI  26
LITCHFIELD     FOG       34  34 100 S5        29.85F VSB 1   WCI  30
BUFFALO        CLOUDY    32  32  97 SE5       29.88S FOG     WCI  28
MAPLE LAKE     FOG       33  33  99 SE5       29.87S VSB 1   WCI  29
$$
MNZ037-044-045-052-053-211500-
   East Central Minnesota

CITY           SKY/WX    TMP DP  RH WIND       PRES   REMARKS
PRINCETON      CLOUDY    34  30  86 SE7       29.88F FOG     WCI  28
MORA           CLOUDY    32  28  86 SE7       29.90F WCI  26
CAMBRIDGE      CLOUDY    34  27  75 SE5       29.87F HAZE    WCI  30
RUSH CITY      CLOUDY    32  30  94 SE5       29.90F WCI  27
MOOSE LAKE     CLOUDY    32  30  93 S7G16     29.87F FOG     WCI  26
HINCKLEY       CLOUDY    32  32 100 CALM      29.90F FOG
CLOQUET        CLOUDY    30  28  93 S7        29.88F FOG     WCI  23
MCGREGOR       CLOUDY    32  30  93 S13       29.86F WCI  22
$$
MNZ071>073-080-081-089-090-097-098-211500-
   Southwest Minnesota

CITY           SKY/WX    TMP DP  RH WIND       PRES   REMARKS
MONTEVIDEO     CLOUDY    32  32 100 S7        29.81F FOG     WCI  26
GRANITE FALLS  FOG       32  31  97 SE8       29.83F VSB 1   WCI  24
CANBY          CLOUDY    32  31  96 S7        29.79F FOG     WCI  26
MARSHALL       CLOUDY    32  28  86 S9        29.80F WCI  24
REDWOOD FALLS  FOG       32  32 100 S8        29.83F VSB 1/2 WCI  25
OLIVIA         FOG       34  32  93 S7        29.82F VSB 1/2 WCI  28
PIPESTONE      FOG       30  30 100 CALM      29.78F VSB 1/4
WINDOM         FOG       34  34 100 S7        29.81F VSB 3/4 WCI  28
WORTHINGTON    CLOUDY    34  32  93 S10       29.80F WCI  26
JACKSON        CLOUDY    34  32  93 S14       29.81F FOG     WCI  24
TRACY          CLOUDY    33  32  97 S6        29.81F FOG     WCI  27
SLAYTON        CLOUDY    32  32 100 S5        29.80F FOG     WCI  27
$$
MNZ065>067-074>077-082>085-091>093-211500-
   South Central Minnesota

CITY           SKY/WX    TMP DP  RH WIND       PRES   REMARKS
MANKATO        CLOUDY    34  30  86 S12       29.87F WCI  25
NEW ULM        MIX PCPN  34  34 100 S12       29.84F VSB 1/4 WCI  25
ST JAMES       FOG       36  34  93 SE12      29.85F VSB 1/2
FAIRMONT       CLOUDY    34  32  93 S14       29.84F VSB 3/4 WCI  24
GLENCOE        DRIZZLE   34  34 100 SE7       29.85F WCI  28
FARIBAULT      CLOUDY    34  34 100 S9G16     29.90F FOG     WCI  26
OWATONNA       CLOUDY    34  34 100 S12G17    29.90S FOG     WCI  25
WASECA         DRIZZLE   34  32  93 S12G17    29.89F WCI  25
ALBERT LEA     MIX PCPN  34  34 100 S9        29.89S VSB 1/4 WCI  26
$$
MNZ078>079-086>088-094>096-211500-
   Southeast Minnesota

CITY           SKY/WX    TMP DP  RH WIND       PRES   REMARKS
ROCHESTER      FOG       33  32  96 S18       29.92F VSB 1/4 WCI  22
RED WING       CLOUDY    34  32  93 SE7       29.94F FOG     WCI  28
STANTON        CLOUDY    35  33  91 S9        29.90F FOG     WCI  28
DODGE CENTER   FOG       34  34 100 S17       29.90F VSB 1/4 WCI  23
WINONA         CLOUDY    34  32  93 SE8       29.99F FOG     WCI  27
AUSTIN         MIX PCPN  34  34 100 S12G18    29.90F VSB 1/2 WCI  25
PRESTON        FOG       32  32 100 S14G21    29.95F VSB<1/4 WCI  22
$$
ABBREVIATIONS USED IN REMARKS
   TC - TEMPERATURES IN CELSIUS
  WCI - WIND CHILL INDEX
   HX - HEAT INDEX
  VSB - VISIBILITY
$$



USA.gov is the U.S. government's official web portal to all federal, state and local government web resources and services.